Regional Weather Roundup
Issued by NWS Glasgow, MT

Home | Current Version | Previous Version | Text Only | Print | Product List | Glossary On
Versions: 1 2 3 4 5 6 7 8 9 10 11 12 13 14 15 16 17 18 19 20 21 22 23 24 25 26 27 28 29 30 31 32 33 34 35 36 37 38 39 40 41 42 43 44 45 46 47 48 49 50
000
ASUS45 KGGW 020415
RWRGGW
HOURLY WEATHER ROUNDUP FOR NORTHEAST MONTANA
NATIONAL WEATHER SERVICE GLASGOW MONTANA
1000 PM MDT FRI AUG 01 2014

NOTE: "FAIR" INDICATES FEW OR NO CLOUDS BELOW 12,000 FEET WITH NO
SIGNIFICANT WEATHER AND/OR OBSTRUCTIONS TO VISISBILITY.

NORTHEAST MONTANA


CITY           SKY/WX    TMP DP  RH WIND       PRES   REMARKS
GLASGOW        PTCLDY    70  56  61 NE9       30.12R
PLENTYWOOD       N/A     65  59  81 E9G17       N/A
WOLF POINT     CLOUDY    67  56  67 NE10      30.11R
JORDAN           N/A     75  44  33 CALM      30.10R
WINNETT          N/A     77  37  23 N7          N/A
SIDNEY         PTCLDY    70  54  56 NW17G25   30.14R
GLENDIVE       PTCLDY    73  54  49 NE7       30.12R
MALTA            N/A     73  52  47 NE5         N/A
SCOBEY           N/A     61  55  81 CALM      30.13R

FORT PECK REPORTS


CITY           SKY/WX    TMP DP  RH WIND       PRES   REMARKS
FORT PECK        N/A     74  53  48 N6          N/A
THE PINES        N/A     76  53  44 NE10        N/A

SOUTHEAST MONTANA


CITY           SKY/WX    TMP DP  RH WIND       PRES   REMARKS
BILLINGS       PTCLDY    80  42  25 W14G20    30.16R
MILES CITY     CLEAR     76 -25   1 NE9       30.09R
BAKER          PTCLDY    70  58  65 E10       30.13R
LIVINGSTON     PTCLDY    72  42  34 CALM      30.20R

CENTRAL MONTANA


CITY           SKY/WX    TMP DP  RH WIND       PRES   REMARKS
HAVRE          CLOUDY    75  58  55 E16       30.15R
LEWISTOWN      MOCLDY    75  42  30 E7        30.20R
GREAT FALLS    CLOUDY    77  49  37 NE17      30.14R
CUT BANK       CLOUDY    72  52  49 N8        30.19R
HELENA         NOT AVBL
BUTTE          CLOUDY    72  41  32 N6        30.28R
BOZEMAN        MOCLDY    71  44  37 SW3       30.21R

WESTERN MONTANA


CITY           SKY/WX    TMP DP  RH WIND       PRES   REMARKS
MISSOULA       CLOUDY    77  44  30 N6        30.10R
KALISPELL      NOT AVBL

NORTH DAKOTA


CITY           SKY/WX    TMP DP  RH WIND       PRES   REMARKS
WILLISTON      CLEAR     68  56  65 CALM      30.10R
DICKINSON      CLEAR     64  58  80 NE6       30.11R
MINOT          CLEAR     66  60  81 CALM      30.08R
BISMARCK       MOCLDY    68  62  81 N3        30.08R

SOUTHERN SASKATCHEWAN


CITY           SKY/WX    TMP DP  RH WIND       PRES   REMARKS
REGINA         MOCLDY    63  61  94 E10       30.10S
ESTEVAN        CLOUDY    64  61  88 SE6       30.10R
SWIFT CURRENT  CLEAR     61  59  94 N5        30.18R




USA.gov is the U.S. government's official web portal to all federal, state and local government web resources and services.